Regional Weather Roundup
Issued by NWS Charleston, SC

Current Version | Previous Version | Graphics & Text | Print | Product List | Glossary On
Versions: 1 2 3 4 5 6 7 8 9 10 11 12 13 14 15 16 17 18 19 20 21 22 23 24 25 26 27 28 29 30 31 32 33 34 35 36 37 38 39 40 41 42 43 44 45 46 47 48 49 50
000 ASUS42 KCHS 251525 RWRCHS REGIONAL WEATHER ROUNDUP NATIONAL WEATHER SERVICE CHARLESTON SC 1100 AM EDT FRI JUL 25 2014 NOTE: "FAIR" INDICATES FEW OR NO CLOUDS BELOW 12,000 FEET WITH NO SIGNIFICANT WEATHER AND/OR OBSTRUCTIONS TO VISIBILITY. NOT ALL STATIONS ARE QUALITY CONTROLLED BY THE NATIONAL WEATHER SERVICE. USE DATA WITH CAUTION...ESPECIALLY DEWPOINT OBSERVATIONS. SCZ027-030-031-034>040-042>050-251600- ...SOUTH CAROLINA... CITY SKY/WX TMP DP RH WIND PRES REMARKS N CHARLESTON MOSUNNY 88 74 63 SW6 30.03S HX 96 WATERFRONT PRK N/A 84 N/A N/A SW6 N/A FORT JOHNSON NOT AVBL MOUNT PLEASANT FAIR 88 75 66 W5 30.02F HX 97 JOHNS ISLAND SUNNY 90 68 48 CALM 30.03S HX 93 PINOPOLIS N/A 88 75 66 W2 29.94R HX 97 MONCKS CORNER N/A 90 77 66 W3 30.02S HX 102 SUMMERVILLE FAIR 88 75 66 SW5 30.03S HX 97 BEAUFORT MCAS MOSUNNY 87 74 64 NW7 30.03S HX 95 BEAUFORT ARPT FAIR 86 77 74 SW7 30.03S HX 97 HILTON HEAD IS NOT AVBL GEORGETOWN NOT AVBL WALTERBORO SUNNY 88 70 55 W8 30.03S HX 92 ORANGEBURG MOSUNNY 85 72 65 SW5 30.03S HX 91 BARNWELL FAIR 88 73 62 SW9 30.04R HX 96 AIKEN PTSUNNY 82 77 83 CALM 30.07S HX 91 MANNING PTSUNNY 84 79 84 N5 30.03S HX 96 KINGSTREE NOT AVBL COLUMBIA CLOUDY 82 70 66 E5 30.04R SUMTER CLOUDY 76 73 92 VRB5 30.04R FLORENCE CLOUDY 75 70 84 NE6 30.05R MYRTLE BEACH CLOUDY 81 73 78 N8 30.03S N MYRTLE BEACH CLOUDY 77 73 87 N6 30.04R FOG $$ GAZ063-065-086>088-099>101-113>116-118-119-134-136>141-150-251600- ...GEORGIA... CITY SKY/WX TMP DP RH WIND PRES REMARKS SAVANNAH ARPT MOSUNNY 87 74 64 W8 30.04S HX 95 HUNTER AAF SUNNY 87 75 67 W8 30.03R HX 97 FORT STEWART MOSUNNY 87 74 65 W7 30.04R HX 96 STATESBORO NOT AVBL SYLVANIA SUNNY 87 78 74 W6 30.04S HX 99 CLAXTON FAIR 88 77 70 W3 30.04S HX 100 THOMSON MOSUNNY 84 79 84 CALM 30.09S HX 95 AUGUSTA-BUSH MOSUNNY 86 71 60 SW9 30.02S HX 91 AUGUSTA-DANIEL MOSUNNY 85 72 65 VRB6 30.05R HX 91 SWAINSBORO PTSUNNY 88 77 70 CALM 30.05S HX 100 VIDALIA N/A 86 75 70 SW7 30.05S HX 95 ALMA MOSUNNY 86 72 62 W8 30.06S HX 92 WAYCROSS MOSUNNY 90 77 65 W7 30.06F HX 102 JESUP NOT AVBL BRUNSWICK SUNNY 88 72 58 SW9 30.06S HX 94 SAINT SIMONS SUNNY 86 72 62 W13 30.06R HX 92 $$ SCZ027-028-034-036>038-045-046-048>050-GAZ119-141-251600- ...LAKE AND SUPPLEMENTAL COASTAL OBSERVATIONS... STATION/POSITION TIME TEMP WIND PRES WAVE SWELL AIR SEA DIR/SP/G HT/PER HT/PER/DIR (UTC) (F) (DEG/KT/KT) (MB) (FT/S) (FT/S/D) UPR LAKE MARION NOT AVBL WINYAH BAY 1500 85 240/ 4 1016.0S LAKE MURRAY 1500 75 40/ 1/ 3 1016.9S ACE BASIN NERRS 1500 86 260/ 2 1017.0S FORT PULASKI 1500 84 270/ 5/ 6 1017.6R SAPELO ISLAND 1400 84 260/ 11 1018.0S $$ ANZ835-935-AMZ111-154-330-350-352-354-374-450-454-472-251600- ...C-MAN AND BUOY OBSERVATIONS... STATION/POSITION TIME TEMP WIND PRES WAVE SWELL AIR SEA DIR/SP/G HT/PER HT/PER/DIR (UTC) (F) (DEG/KT/KT) (MB) (FT/S) (FT/S/D) FOLLY BEACH CMAN 1500 86 210/ 4/ 7 1017.4R BUOY 41004 1500 82 82 260/ 10/ 12 1016.7R 4/ 5 3/ 5 BUOY 41008 1500 82 84 250/ 12/ 14 1017.6R 2/ 3 2/140/ 6 5E ST. MARYS GA 1500 85 N/A 2/ 4 FRYING PAN BUOY NOT AVBL BUOY 41025 1500 VRB 10/ 12 1017.0R 3/ 7 2/150/ 7 CAPE LOOKOUT NC 1500 76 30/ 11/ 13 1017.6R BUOY 41002 1437 74 82 320/ 16/ 17 1020.5R 5/ 7 2/230/ 7 BUOY 41010 1500 83 84 210/ 12/ 14 1019.6R 3/ 8 2/130/ 8 BUOY 41012 NOT AVBL ST AUGUSTINE FL 1500 87 250/ 6/ 7 1019.2R CAPERS NEARSHORE 1400 83 250/ 8/ 10 N/A FRIPP NEARSHORE NOT AVBL $$

USA.gov is the U.S. government's official web portal to all federal, state and local government web resources and services.